"Sample Date","Sample Time","Sample Value","Units","Flow Rate","Sample Interval","Number Channels","Micron Size 0","Counts/Channel 0","Micron Size 1","Counts/Channel 1","Micron Size 2","Counts/Channel 2","Micron Size 3","Counts/Channel 3","Micron Size 4","Counts/Channel 4","Micron Size 5","Counts/Channel 5","Micron Size 6","Counts/Channel 6","Micron Size 7","Counts/Channel 7","Micron Size 8","Counts/Channel 8","Micron Size 9","Counts/Channel 9","Micron Size 10","Counts/Channel 10","Micron Size 11","Counts/Channel 11","Micron Size 12","Counts/Channel 12","Micron Size 13","Counts/Channel 13","Micron Size 14","Counts/Channel 14","Micron Size 15","Counts/Channel 15","Micron Size 16","Counts/Channel 16","Micron Size 17","Counts/Channel 17","Micron Size 18","Counts/Channel 18","Micron Size 19","Counts/Channel 19","Micron Size 20","Counts/Channel 20","Micron Size 21","Counts/Channel 21","Micron Size 22","Counts/Channel 22","Micron Size 23","Counts/Channel 23","Micron Size 24","Counts/Channel 24","Micron Size 25","Counts/Channel 25","Micron Size 26","Counts/Channel 26","Micron Size 27","Counts/Channel 27","Micron Size 28","Counts/Channel 28","Micron Size 29","Counts/Channel 29","Micron Size 30","Counts/Channel 30","Micron Size 31","Counts/Channel 31"
"04/10/08","12:13:17",20299.000,"cc",28273.936,6.00,6,0.100,17893.000,0.200,1100.000,0.300,477.000,0.500,571.000,1.000,258.000,5.000,0
"04/10/08","12:13:23",19685.000,"cc",28299.850,6.00,6,0.100,17278.000,0.200,1095.000,0.300,481.000,0.500,564.000,1.000,267.000,5.000,0
"04/10/08","12:13:29",20215.000,"cc",28269.949,6.00,6,0.100,17749.000,0.200,1077.000,0.300,541.000,0.500,582.000,1.000,266.000,5.000,0
"04/10/08","12:13:35",20136.000,"cc",28366.973,6.00,6,0.100,17654.000,0.200,1137.000,0.300,501.000,0.500,602.000,1.000,242.000,5.000,0
"04/10/08","12:13:41",19622.000,"cc",28369.912,6.00,6,0.100,17227.000,0.200,1058.000,0.300,497.000,0.500,599.000,1.000,241.000,5.000,0
"04/10/08","12:13:47",19584.000,"cc",28276.391,6.00,6,0.100,17205.000,0.200,1075.000,0.300,494.000,0.500,572.000,1.000,238.000,5.000,0
"04/10/08","12:13:53",21521.000,"cc",28286.934,6.00,6,0.100,19051.000,0.200,1114.000,0.300,517.000,0.500,566.000,1.000,273.000,5.000,0
"04/10/08","12:13:59",20109.000,"cc",28320.299,6.00,6,0.100,17715.000,0.200,1130.000,0.300,465.000,0.500,553.000,1.000,246.000,5.000,0
"04/10/08","12:14:05",19952.000,"cc",28383.299,6.00,6,0.100,17638.000,0.200,1084.000,0.300,458.000,0.500,532.000,1.000,240.000,5.000,0
"04/10/08","12:14:11",19899.000,"cc",28321.258,6.00,6,0.100,17577.000,0.200,997.000,0.300,520.000,0.500,578.000,1.000,227.000,5.000,0
"04/10/08","12:14:17",20740.000,"cc",28279.236,6.00,6,0.100,18249.000,0.200,1143.000,0.300,530.000,0.500,564.000,1.000,254.000,5.000,0
"04/10/08","12:14:23",20200.000,"cc",28305.830,6.00,6,0.100,17749.000,0.200,1152.000,0.300,528.000,0.500,558.000,1.000,213.000,5.000,0
"04/10/08","12:14:29",22378.000,"cc",28296.879,6.00,6,0.100,19911.000,0.200,1171.000,0.300,456.000,0.500,583.000,1.000,257.000,5.000,0
"04/10/08","12:14:35",20265.000,"cc",28306.768,6.00,6,0.100,17860.000,0.200,1104.000,0.300,501.000,0.500,560.000,1.000,240.000,5.000,0
"04/10/08","12:14:41",20142.000,"cc",28321.199,6.00,6,0.100,17701.000,0.200,1116.000,0.300,510.000,0.500,570.000,1.000,245.000,5.000,0
"04/10/08","12:14:47",20982.000,"cc",28349.725,6.00,6,0.100,18610.000,0.200,1098.000,0.300,503.000,0.500,555.000,1.000,215.000,5.000,1.000
"04/10/08","12:14:53",20093.000,"cc",28327.635,6.00,6,0.100,17678.000,0.200,1092.000,0.300,508.000,0.500,558.000,1.000,257.000,5.000,0
"04/10/08","12:14:59",21260.000,"cc",28279.127,6.00,6,0.100,18828.000,0.200,1147.000,0.300,441.000,0.500,605.000,1.000,239.000,5.000,0
"04/10/08","12:15:05",20346.000,"cc",28268.109,6.00,6,0.100,17969.000,0.200,1101.000,0.300,466.000,0.500,578.000,1.000,231.000,5.000,1.000
"04/10/08","12:15:11",19815.000,"cc",28333.398,6.00,6,0.100,17482.000,0.200,1052.000,0.300,472.000,0.500,568.000,1.000,241.000,5.000,0
"04/10/08","12:15:17",19842.000,"cc",28372.891,6.00,6,0.100,17447.000,0.200,1103.000,0.300,480.000,0.500,589.000,1.000,223.000,5.000,0
"04/10/08","12:15:23",23816.000,"cc",28309.539,6.00,6,0.100,19551.000,0.200,1954.000,0.300,1006.000,0.500,945.000,1.000,360.000,5.000,0
"04/10/08","12:15:29",24022.000,"cc",28364.354,6.00,6,0.100,19621.000,0.200,1949.000,0.300,1100.000,0.500,978.000,1.000,374.000,5.000,0
"04/10/08","12:15:35",21300.000,"cc",28319.068,6.00,6,0.100,18289.000,0.200,1396.000,0.300,686.000,0.500,659.000,1.000,269.000,5.000,1.000
"04/10/08","12:15:41",20403.000,"cc",28309.629,6.00,6,0.100,17866.000,0.200,1139.000,0.300,548.000,0.500,602.000,1.000,248.000,5.000,0
"04/10/08","12:15:47",19925.000,"cc",28290.395,6.00,6,0.100,17391.000,0.200,1166.000,0.300,506.000,0.500,631.000,1.000,231.000,5.000,0
"04/10/08","12:15:53",20010.000,"cc",28327.363,6.00,6,0.100,17553.000,0.200,1100.000,0.300,519.000,0.500,589.000,1.000,249.000,5.000,0
"04/10/08","12:15:59",19478.000,"cc",28352.432,6.00,6,0.100,17149.000,0.200,998.000,0.300,484.000,0.500,584.000,1.000,263.000,5.000,0
"04/10/08","12:16:05",20496.000,"cc",28252.281,6.00,6,0.100,18086.000,0.200,1109.000,0.300,503.000,0.500,570.000,1.000,228.000,5.000,0
"04/10/08","12:16:11",20475.000,"cc",28305.113,6.00,6,0.100,18115.000,0.200,1058.000,0.300,477.000,0.500,583.000,1.000,241.000,5.000,1.000
"04/10/08","12:16:17",19888.000,"cc",28304.287,6.00,6,0.100,17533.000,0.200,1087.000,0.300,479.000,0.500,585.000,1.000,204.000,5.000,0
"04/10/08","12:16:23",19843.000,"cc",28325.443,6.00,6,0.100,17469.000,0.200,1070.000,0.300,494.000,0.500,560.000,1.000,250.000,5.000,0
"04/10/08","12:16:29",20041.000,"cc",28326.723,6.00,6,0.100,17477.000,0.200,1147.000,0.300,541.000,0.500,612.000,1.000,264.000,5.000,0
"04/10/08","12:16:35",20202.000,"cc",28377.262,6.00,6,0.100,17670.000,0.200,1105.000,0.300,566.000,0.500,611.000,1.000,250.000,5.000,0
"04/10/08","12:16:41",19594.000,"cc",28327.020,6.00,6,0.100,17062.000,0.200,1147.000,0.300,526.000,0.500,601.000,1.000,258.000,5.000,0
"04/10/08","12:16:47",19548.000,"cc",28286.658,6.00,6,0.100,17218.000,0.200,1062.000,0.300,471.000,0.500,572.000,1.000,225.000,5.000,0
"04/10/08","12:16:53",19688.000,"cc",28310.281,6.00,6,0.100,17397.000,0.200,1021.000,0.300,459.000,0.500,571.000,1.000,240.000,5.000,0
"04/10/08","12:16:59",19623.000,"cc",28293.086,6.00,6,0.100,17242.000,0.200,1064.000,0.300,505.000,0.500,567.000,1.000,245.000,5.000,0
"04/10/08","12:17:05",19973.000,"cc",28307.197,6.00,6,0.100,17594.000,0.200,1078.000,0.300,478.000,0.500,587.000,1.000,236.000,5.000,0
"04/10/08","12:17:11",19488.000,"cc",28356.697,6.00,6,0.100,17113.000,0.200,1054.000,0.300,495.000,0.500,563.000,1.000,263.000,5.000,0
"04/10/08","12:17:17",20811.000,"cc",28326.014,6.00,6,0.100,18444.000,0.200,1057.000,0.300,512.000,0.500,549.000,1.000,249.000,5.000,0
"04/10/08","12:17:23",20242.000,"cc",28312.637,6.00,6,0.100,17864.000,0.200,1071.000,0.300,477.000,0.500,584.000,1.000,246.000,5.000,0
"04/10/08","12:17:29",19785.000,"cc",28296.908,6.00,6,0.100,17417.000,0.200,1061.000,0.300,518.000,0.500,554.000,1.000,235.000,5.000,0
"04/10/08","12:17:35",19050.000,"cc",28280.522,6.00,6,0.100,16736.000,0.200,1036.000,0.300,463.000,0.500,562.000,1.000,253.000,5.000,0
"04/10/08","12:17:41",19311.000,"cc",28320.102,6.00,6,0.100,16950.000,0.200,1075.000,0.300,464.000,0.500,568.000,1.000,254.000,5.000,0
"04/10/08","12:17:47",19405.000,"cc",28368.135,6.00,6,0.100,17094.000,0.200,1046.000,0.300,500.000,0.500,542.000,1.000,223.000,5.000,0
"04/10/08","12:17:53",20487.000,"cc",28332.377,6.00,6,0.100,18060.000,0.200,1112.000,0.300,505.000,0.500,581.000,1.000,229.000,5.000,0
"04/10/08","12:17:59",19227.000,"cc",28304.979,6.00,6,0.100,16836.000,0.200,1079.000,0.300,508.000,0.500,553.000,1.000,251.000,5.000,0
"04/10/08","12:18:05",19364.000,"cc",28263.016,6.00,6,0.100,17037.000,0.200,1038.000,0.300,470.000,0.500,573.000,1.000,246.000,5.000,0
"04/10/08","12:18:11",19183.000,"cc",28292.768,6.00,6,0.100,16877.000,0.200,1040.000,0.300,477.000,0.500,569.000,1.000,220.000,5.000,0
"04/10/08","12:18:17",19362.000,"cc",28317.740,6.00,6,0.100,17014.000,0.200,1066.000,0.300,465.000,0.500,573.000,1.000,244.000,5.000,0
"04/10/08","12:18:23",19238.000,"cc",28308.904,6.00,6,0.100,16812.000,0.200,1094.000,0.300,534.000,0.500,561.000,1.000,237.000,5.000,0
"04/10/08","12:18:29",19456.000,"cc",28323.180,6.00,6,0.100,17038.000,0.200,1090.000,0.300,518.000,0.500,559.000,1.000,250.000,5.000,1.000
"04/10/08","12:18:35",19573.000,"cc",28367.680,6.00,6,0.100,17055.000,0.200,1151.000,0.300,507.000,0.500,596.000,1.000,264.000,5.000,0
"04/10/08","12:18:41",19276.000,"cc",28394.014,6.00,6,0.100,16877.000,0.200,1118.000,0.300,481.000,0.500,573.000,1.000,227.000,5.000,0
"04/10/08","12:18:47",19643.000,"cc",28291.430,6.00,6,0.100,17284.000,0.200,1060.000,0.300,487.000,0.500,572.000,1.000,240.000,5.000,0
"04/10/08","12:18:53",19348.000,"cc",28229.441,6.00,6,0.100,17003.000,0.200,1026.000,0.300,500.000,0.500,590.000,1.000,229.000,5.000,0
"04/10/08","12:18:59",19436.000,"cc",28326.045,6.00,6,0.100,17016.000,0.200,1070.000,0.300,530.000,0.500,578.000,1.000,242.000,5.000,0
"04/10/08","12:19:05",20194.000,"cc",28344.883,6.00,6,0.100,17505.000,0.200,1199.000,0.300,588.000,0.500,606.000,1.000,296.000,5.000,0
"04/10/08","12:19:08",6969.000,"cc",28323.565,2.00,6,0.100,6116.000,0.200,399.000,0.300,169.000,0.500,197.000,1.000,88.000,5.000,0
"04/10/08","12:19:19",20323.000,"cc",28188.055,6.00,6,0.100,18065.000,0.200,1041.000,0.300,458.000,0.500,530.000,1.000,229.000,5.000,0
"04/10/08","12:19:25",19274.000,"cc",28384.732,6.00,6,0.100,16872.000,0.200,1082.000,0.300,509.000,0.500,557.000,1.000,254.000,5.000,0
"04/10/08","12:19:31",19561.000,"cc",28388.531,6.00,6,0.100,17200.000,0.200,1106.000,0.300,488.000,0.500,538.000,1.000,229.000,5.000,0
"04/10/08","12:19:37",20254.000,"cc",28305.615,6.00,6,0.100,17870.000,0.200,1062.000,0.300,502.000,0.500,584.000,1.000,236.000,5.000,0
"04/10/08","12:19:43",19411.000,"cc",28300.488,6.00,6,0.100,17009.000,0.200,1087.000,0.300,504.000,0.500,556.000,1.000,254.000,5.000,1.000
"04/10/08","12:19:49",19426.000,"cc",28334.451,6.00,6,0.100,17072.000,0.200,1081.000,0.300,456.000,0.500,571.000,1.000,246.000,5.000,0
"04/10/08","12:19:55",19710.000,"cc",28326.520,6.00,6,0.100,17316.000,0.200,1063.000,0.300,503.000,0.500,561.000,1.000,267.000,5.000,0
"04/10/08","12:20:01",19705.000,"cc",28266.297,6.00,6,0.100,17396.000,0.200,1079.000,0.300,445.000,0.500,550.000,1.000,235.000,5.000,0
"04/10/08","12:20:07",19919.000,"cc",28308.906,6.00,6,0.100,17630.000,0.200,1077.000,0.300,441.000,0.500,541.000,1.000,230.000,5.000,0
"04/10/08","12:20:13",19452.000,"cc",28345.107,6.00,6,0.100,17175.000,0.200,1043.000,0.300,463.000,0.500,531.000,1.000,240.000,5.000,0
"04/10/08","12:20:19",19493.000,"cc",28352.098,6.00,6,0.100,17100.000,0.200,1081.000,0.300,474.000,0.500,573.000,1.000,265.000,5.000,0
"04/10/08","12:20:25",19347.000,"cc",28312.012,6.00,6,0.100,17051.000,0.200,1063.000,0.300,436.000,0.500,535.000,1.000,262.000,5.000,0
"04/10/08","12:20:31",19390.000,"cc",28313.656,6.00,6,0.100,17123.000,0.200,1034.000,0.300,469.000,0.500,544.000,1.000,220.000,5.000,0
"04/10/08","12:20:37",19673.000,"cc",28323.227,6.00,6,0.100,17369.000,0.200,1034.000,0.300,464.000,0.500,571.000,1.000,235.000,5.000,0
"04/10/08","12:20:43",19503.000,"cc",28332.652,6.00,6,0.100,17248.000,0.200,1031.000,0.300,471.000,0.500,512.000,1.000,241.000,5.000,0
"04/10/08","12:20:49",19520.000,"cc",28310.356,6.00,6,0.100,17191.000,0.200,1088.000,0.300,470.000,0.500,522.000,1.000,249.000,5.000,0
"04/10/08","12:20:55",19634.000,"cc",28338.582,6.00,6,0.100,17175.000,0.200,1105.000,0.300,513.000,0.500,582.000,1.000,259.000,5.000,0
"04/10/08","12:21:01",19567.000,"cc",28276.209,6.00,6,0.100,17181.000,0.200,1071.000,0.300,489.000,0.500,597.000,1.000,229.000,5.000,0
"04/10/08","12:21:07",19791.000,"cc",28318.104,6.00,6,0.100,17239.000,0.200,1164.000,0.300,540.000,0.500,617.000,1.000,231.000,5.000,0
"04/10/08","12:21:13",20426.000,"cc",28302.322,6.00,6,0.100,17994.000,0.200,1091.000,0.300,516.000,0.500,578.000,1.000,247.000,5.000,0
"04/10/08","12:21:19",19613.000,"cc",28340.668,6.00,6,0.100,17214.000,0.200,1109.000,0.300,517.000,0.500,528.000,1.000,245.000,5.000,0
"04/10/08","12:21:25",19751.000,"cc",28332.193,6.00,6,0.100,17304.000,0.200,1130.000,0.300,502.000,0.500,603.000,1.000,212.000,5.000,0
"04/10/08","12:21:31",19672.000,"cc",28329.039,6.00,6,0.100,17275.000,0.200,1103.000,0.300,481.000,0.500,565.000,1.000,248.000,5.000,0
"04/10/08","12:21:37",19672.000,"cc",28309.311,6.00,6,0.100,17329.000,0.200,1065.000,0.300,488.000,0.500,546.000,1.000,244.000,5.000,0
"04/10/08","12:21:43",20082.000,"cc",28330.025,6.00,6,0.100,17633.000,0.200,1121.000,0.300,506.000,0.500,569.000,1.000,253.000,5.000,0
"04/10/08","12:21:49",19839.000,"cc",28285.789,6.00,6,0.100,17393.000,0.200,1131.000,0.300,489.000,0.500,577.000,1.000,249.000,5.000,0
"04/10/08","12:21:55",19717.000,"cc",28289.381,6.00,6,0.100,17284.000,0.200,1102.000,0.300,475.000,0.500,610.000,1.000,246.000,5.000,0
"04/10/08","12:22:01",20009.000,"cc",28330.254,6.00,6,0.100,17635.000,0.200,1059.000,0.300,468.000,0.500,593.000,1.000,254.000,5.000,0
"04/10/08","12:22:07",19404.000,"cc",28346.883,6.00,6,0.100,17097.000,0.200,1079.000,0.300,466.000,0.500,535.000,1.000,227.000,5.000,0
"04/10/08","12:22:13",19819.000,"cc",28343.973,6.00,6,0.100,17432.000,0.200,1089.000,0.300,505.000,0.500,554.000,1.000,239.000,5.000,0
"04/10/08","12:22:19",19590.000,"cc",28326.863,6.00,6,0.100,17276.000,0.200,1054.000,0.300,487.000,0.500,561.000,1.000,212.000,5.000,0
"04/10/08","12:22:25",19752.000,"cc",28353.637,6.00,6,0.100,17367.000,0.200,1106.000,0.300,466.000,0.500,558.000,1.000,255.000,5.000,0
"04/10/08","12:22:31",19903.000,"cc",28293.623,6.00,6,0.100,17582.000,0.200,1057.000,0.300,457.000,0.500,580.000,1.000,227.000,5.000,0
"04/10/08","12:22:37",19737.000,"cc",28298.502,6.00,6,0.100,17450.000,0.200,1037.000,0.300,456.000,0.500,552.000,1.000,242.000,5.000,0
"04/10/08","12:22:43",19683.000,"cc",28312.781,6.00,6,0.100,17343.000,0.200,1042.000,0.300,470.000,0.500,565.000,1.000,262.000,5.000,1.000
"04/10/08","12:22:49",20168.000,"cc",28264.469,6.00,6,0.100,17800.000,0.200,1044.000,0.300,499.000,0.500,584.000,1.000,241.000,5.000,0
"04/10/08","12:22:55",19878.000,"cc",28352.305,6.00,6,0.100,17455.000,0.200,1121.000,0.300,475.000,0.500,581.000,1.000,246.000,5.000,0
"04/10/08","12:23:01",19792.000,"cc",28302.438,6.00,6,0.100,17316.000,0.200,1139.000,0.300,494.000,0.500,585.000,1.000,258.000,5.000,0
"04/10/08","12:23:07",19990.000,"cc",28280.902,6.00,6,0.100,17421.000,0.200,1187.000,0.300,539.000,0.500,583.000,1.000,260.000,5.000,0
"04/10/08","12:23:13",19577.000,"cc",28362.523,6.00,6,0.100,17236.000,0.200,1074.000,0.300,470.000,0.500,579.000,1.000,218.000,5.000,0
"04/10/08","12:23:19",19622.000,"cc",28338.055,6.00,6,0.100,17263.000,0.200,1058.000,0.300,458.000,0.500,572.000,1.000,271.000,5.000,0
"04/10/08","12:23:25",20384.000,"cc",28353.846,6.00,6,0.100,17956.000,0.200,1077.000,0.300,501.000,0.500,604.000,1.000,246.000,5.000,0
"04/10/08","12:23:31",19986.000,"cc",28305.205,6.00,6,0.100,17486.000,0.200,1162.000,0.300,542.000,0.500,536.000,1.000,260.000,5.000,0
"04/10/08","12:23:37",20163.000,"cc",28260.879,6.00,6,0.100,17587.000,0.200,1138.000,0.300,554.000,0.500,647.000,1.000,237.000,5.000,0
"04/10/08","12:23:43",20066.000,"cc",28286.660,6.00,6,0.100,17564.000,0.200,1136.000,0.300,494.000,0.500,621.000,1.000,251.000,5.000,0
"04/10/08","12:23:49",19819.000,"cc",28385.902,6.00,6,0.100,17325.000,0.200,1177.000,0.300,517.000,0.500,568.000,1.000,232.000,5.000,0
"04/10/08","12:23:55",19753.000,"cc",28298.760,6.00,6,0.100,17486.000,0.200,1047.000,0.300,427.000,0.500,570.000,1.000,223.000,5.000,0
"04/10/08","12:24:01",19591.000,"cc",28298.209,6.00,6,0.100,17252.000,0.200,1059.000,0.300,494.000,0.500,547.000,1.000,239.000,5.000,0
"04/10/08","12:24:07",19517.000,"cc",28358.770,6.00,6,0.100,17167.000,0.200,1105.000,0.300,485.000,0.500,532.000,1.000,228.000,5.000,0
"04/10/08","12:24:13",20055.000,"cc",28317.117,6.00,6,0.100,17679.000,0.200,1044.000,0.300,481.000,0.500,586.000,1.000,265.000,5.000,0
"04/10/08","12:24:19",19685.000,"cc",28300.941,6.00,6,0.100,17266.000,0.200,1054.000,0.300,502.000,0.500,607.000,1.000,256.000,5.000,0
"04/10/08","12:24:25",19809.000,"cc",28350.547,6.00,6,0.100,17449.000,0.200,1123.000,0.300,456.000,0.500,537.000,1.000,243.000,5.000,1.000
"04/10/08","12:24:31",19246.000,"cc",28302.676,6.00,6,0.100,16840.000,0.200,1061.000,0.300,489.000,0.500,617.000,1.000,239.000,5.000,0
"04/10/08","12:24:37",19996.000,"cc",28296.508,6.00,6,0.100,17623.000,0.200,1071.000,0.300,475.000,0.500,598.000,1.000,229.000,5.000,0
"04/10/08","12:24:43",19730.000,"cc",28305.252,6.00,6,0.100,17364.000,0.200,1081.000,0.300,469.000,0.500,576.000,1.000,239.000,5.000,1.000
"04/10/08","12:24:49",20369.000,"cc",28347.119,6.00,6,0.100,18001.000,0.200,1078.000,0.300,476.000,0.500,557.000,1.000,257.000,5.000,0
"04/10/08","12:24:55",19519.000,"cc",28350.602,6.00,6,0.100,17139.000,0.200,1066.000,0.300,494.000,0.500,570.000,1.000,250.000,5.000,0
"04/10/08","12:25:01",20136.000,"cc",28343.609,6.00,6,0.100,17563.000,0.200,1170.000,0.300,544.000,0.500,608.000,1.000,251.000,5.000,0
"04/10/08","12:25:07",20118.000,"cc",28286.055,6.00,6,0.100,17701.000,0.200,1133.000,0.300,495.000,0.500,569.000,1.000,220.000,5.000,0
"04/10/08","12:25:13",19445.000,"cc",28278.447,6.00,6,0.100,17033.000,0.200,1107.000,0.300,471.000,0.500,583.000,1.000,251.000,5.000,0
"04/10/08","12:25:19",19737.000,"cc",28320.379,6.00,6,0.100,17307.000,0.200,1078.000,0.300,520.000,0.500,599.000,1.000,233.000,5.000,0
"04/10/08","12:25:25",19619.000,"cc",28299.506,6.00,6,0.100,17049.000,0.200,1172.000,0.300,508.000,0.500,623.000,1.000,267.000,5.000,0
"04/10/08","12:25:31",19736.000,"cc",28355.523,6.00,6,0.100,17335.000,0.200,1085.000,0.300,470.000,0.500,611.000,1.000,235.000,5.000,0
"04/10/08","12:25:37",19781.000,"cc",28320.984,6.00,6,0.100,17399.000,0.200,1058.000,0.300,501.000,0.500,588.000,1.000,235.000,5.000,0
"04/10/08","12:25:43",19447.000,"cc",28227.402,6.00,6,0.100,17156.000,0.200,1011.000,0.300,477.000,0.500,569.000,1.000,234.000,5.000,0
"04/10/08","12:25:49",19848.000,"cc",28365.434,6.00,6,0.100,17259.000,0.200,1123.000,0.300,562.000,0.500,620.000,1.000,284.000,5.000,0
"04/10/08","12:25:55",19532.000,"cc",28319.654,6.00,6,0.100,17165.000,0.200,1064.000,0.300,479.000,0.500,581.000,1.000,243.000,5.000,0
"04/10/08","12:26:01",20319.000,"cc",28330.027,6.00,6,0.100,17963.000,0.200,1054.000,0.300,448.000,0.500,622.000,1.000,232.000,5.000,0
"04/10/08","12:26:07",19446.000,"cc",28244.375,6.00,6,0.100,17052.000,0.200,1073.000,0.300,502.000,0.500,570.000,1.000,249.000,5.000,0
"04/10/08","12:26:13",20266.000,"cc",28364.125,6.00,6,0.100,17724.000,0.200,1162.000,0.300,508.000,0.500,603.000,1.000,269.000,5.000,0
"04/10/08","12:26:19",20787.000,"cc",28312.725,6.00,6,0.100,17746.000,0.200,1374.000,0.300,683.000,0.500,735.000,1.000,249.000,5.000,0
"04/10/08","12:26:25",19963.000,"cc",28254.307,6.00,6,0.100,17332.000,0.200,1139.000,0.300,587.000,0.500,644.000,1.000,261.000,5.000,0
"04/10/08","12:26:31",19934.000,"cc",28361.156,6.00,6,0.100,17340.000,0.200,1180.000,0.300,532.000,0.500,639.000,1.000,243.000,5.000,0
"04/10/08","12:26:37",20036.000,"cc",28317.621,6.00,6,0.100,17547.000,0.200,1120.000,0.300,566.000,0.500,579.000,1.000,224.000,5.000,0
"04/10/08","12:26:43",20079.000,"cc",28304.332,6.00,6,0.100,17599.000,0.200,1108.000,0.300,527.000,0.500,605.000,1.000,240.000,5.000,0
"04/10/08","12:26:49",19566.000,"cc",28360.039,6.00,6,0.100,17052.000,0.200,1079.000,0.300,525.000,0.500,658.000,1.000,252.000,5.000,0
"04/10/08","12:26:55",21926.000,"cc",28309.266,6.00,6,0.100,18152.000,0.200,1647.000,0.300,890.000,0.500,893.000,1.000,344.000,5.000,0
"04/10/08","12:27:01",21604.000,"cc",28294.883,6.00,6,0.100,18188.000,0.200,1520.000,0.300,774.000,0.500,815.000,1.000,307.000,5.000,0
"04/10/08","12:27:07",21850.000,"cc",28324.375,6.00,6,0.100,18199.000,0.200,1595.000,0.300,810.000,0.500,884.000,1.000,362.000,5.000,0
"04/10/08","12:27:13",21482.000,"cc",28358.982,6.00,6,0.100,17832.000,0.200,1543.000,0.300,858.000,0.500,926.000,1.000,323.000,5.000,0
"04/10/08","12:27:19",21869.000,"cc",28339.158,6.00,6,0.100,18780.000,0.200,1429.000,0.300,667.000,0.500,720.000,1.000,273.000,5.000,0
"04/10/08","12:27:25",21384.000,"cc",28296.932,6.00,6,0.100,18188.000,0.200,1420.000,0.300,719.000,0.500,754.000,1.000,303.000,5.000,0
"04/10/08","12:27:31",21902.000,"cc",28259.275,6.00,6,0.100,18304.000,0.200,1594.000,0.300,802.000,0.500,841.000,1.000,361.000,5.000,0
"04/10/08","12:27:37",22312.000,"cc",28336.606,6.00,6,0.100,18592.000,0.200,1615.000,0.300,897.000,0.500,856.000,1.000,352.000,5.000,0
"04/10/08","12:27:43",21209.000,"cc",28339.918,6.00,6,0.100,17936.000,0.200,1467.000,0.300,716.000,0.500,773.000,1.000,317.000,5.000,0
"04/10/08","12:27:49",20525.000,"cc",28318.643,6.00,6,0.100,17501.000,0.200,1356.000,0.300,660.000,0.500,721.000,1.000,287.000,5.000,0
"04/10/08","12:27:55",20792.000,"cc",28294.217,6.00,6,0.100,17825.000,0.200,1292.000,0.300,621.000,0.500,771.000,1.000,283.000,5.000,0
"04/10/08","12:28:01",21860.000,"cc",28306.422,6.00,6,0.100,18184.000,0.200,1639.000,0.300,851.000,0.500,838.000,1.000,348.000,5.000,0
"04/10/08","12:28:07",21849.000,"cc",28331.727,6.00,6,0.100,17987.000,0.200,1701.000,0.300,899.000,0.500,901.000,1.000,361.000,5.000,0
"04/10/08","12:28:13",20510.000,"cc",28332.256,6.00,6,0.100,17462.000,0.200,1343.000,0.300,663.000,0.500,756.000,1.000,286.000,5.000,0
"04/10/08","12:28:19",24022.000,"cc",28327.838,6.00,6,0.100,18986.000,0.200,2164.000,0.300,1231.000,0.500,1180.000,1.000,461.000,5.000,0
